Location: Lake Almanor
(40.2485°N, 121.1442°W)
Time: 01:23:57
(UTC-08:00)

STARLINK-1108 - Pass Details

Date: 02 February 2020
Orbit: 349 x 351 km, 53.0° (Epoch: 18 February)

Event Time Altitude Azimuth Distance (km) Brightness Sun altitude
Rises 19:04:59 0° 294° (WNW) 2,164 7.7 -19.5°
Reaches altitude 10° 19:07:29 10° 271° (W) 1,317 6.8 -20.0°
Maximum altitude 19:09:24 16° 230° (SW) 1,018 5.7 -20.3°
Drops below altitude 10° 19:11:19 10° 189° (S) 1,311 5.7 -20.7°
Enters shadow 19:11:43 - 184° (S) 1,426 5.8 -20.8°
